sat.trackr.live / text

‹ back to catalog

STARLINK-33860

NORAD 64033 · 2025-102M

PAYLOAD ACTIVE UNKNOWN

§ Identity

Operator
Country
US
Launch date
2025-05-16
Launch site
AFWTR
Launch vehicle
Mass (kg)
RCS (m²)

Purposes: comms

External: N2YO · Heavens-Above · Gunter

§ Orbital elements

Epoch: 2026-05-24T19:08:13.009920Z

Period
96.11 min
Inclination
70.0002°
Eccentricity
0.0003406
Mean motion
14.98326275 rev/d
Perigee alt
569.7 km
Apogee alt
574.4 km
Semi-major
6,950.2 km
B*
-7.6411e-5
RAAN
282.5054°
Arg perigee
268.6129°
Mean anomaly
91.4640°
Rev number
5,736

§ Raw data

STARLINK-338601 64033U 25102M   26144.79737280 -.00001005  00000+0 -76411-4 0  99962 64033  70.0002 282.5054 0003406 268.6129  91.4640 14.98326275 57362

JSON: /api/v1/satellites/64033 · /tle

For live sub-satellite position, see the globe view (requires WebGL).

§ Visibility from observer

Set your observer location to see the next 7 days of passes ≥ 10°. The values pass through the URL so the page stays shareable.

No JS? Fill the form by hand. The geolocation button needs JavaScript.